sat.trackr.live / text

‹ back to catalog

STARLINK-35866

NORAD 66878 · 2025-283A

PAYLOAD ACTIVE UNKNOWN

§ Identity

Operator
Country
US
Launch date
2025-12-04
Launch site
AFWTR
Launch vehicle
Mass (kg)
RCS (m²)

Purposes: comms

External: N2YO · Heavens-Above · Gunter

§ Orbital elements

Epoch: 2026-05-25T02:17:00.497760Z

Period
94.11 min
Inclination
53.1597°
Eccentricity
0.0001395
Mean motion
15.30165339 rev/d
Perigee alt
474.4 km
Apogee alt
476.3 km
Semi-major
6,853.5 km
B*
-2.2462e-4
RAAN
29.1694°
Arg perigee
82.9789°
Mean anomaly
277.1370°
Rev number
2,754

§ Raw data

STARLINK-358661 66878U 25283A   26145.09514465 -.00006999  00000+0 -22462-3 0  99902 66878  53.1597  29.1694 0001395  82.9789 277.1370 15.30165339 27540

JSON: /api/v1/satellites/66878 · /tle

For live sub-satellite position, see the globe view (requires WebGL).

§ Visibility from observer

Set your observer location to see the next 7 days of passes ≥ 10°. The values pass through the URL so the page stays shareable.

No JS? Fill the form by hand. The geolocation button needs JavaScript.